Location: Arroyo de Valdeoliva
(40.1604°N, 4.9878°W)
Time: 23:48:18
(UTC+00:00)

USA 238 DEB - Visible Passes

Search period start: 13 March 2026 00:00
Search period end: 23 March 2026 00:00
Orbit: 883 x 1328 km, 63.4° (Epoch: 10 January)

Date Brightness Start Highest point End Pass type
(mag) Time Alt. Az. Time Alt. Az. Time Alt. Az.
13 Mar 6.0 03:16:05 10° NNW 03:21:34 22° NE 03:27:21 10° E visible
13 Mar 4.3 05:06:12 10° NNW 05:13:45 74° NE 05:21:54 10° SE visible
13 Mar 4.7 19:01:17 10° SE 19:05:01 17° ESE 19:08:55 10° ENE visible
13 Mar 3.5 20:48:59 10° SW 20:54:58 74° NW 21:01:35 10° NNE visible
13 Mar 5.8 22:42:49 10° WNW 22:47:09 19° NNW 22:51:46 10° NNE visible
14 Mar 6.2 02:31:27 10° N 02:35:50 16° NNE 02:40:26 10° ENE visible
14 Mar 4.8 04:21:19 10° NNW 04:28:35 51° NE 04:36:25 10° SE visible
14 Mar 3.3 20:04:07 10° SSW 20:10:02 70° ESE 20:16:31 10° NE visible
14 Mar 5.4 21:56:28 10° W 22:01:34 26° NW 22:07:04 10° NNE visible
14 Mar 6.4 23:54:14 10° NNW 23:55:17 10° N 23:56:21 10° N visible
15 Mar 6.4 01:46:52 10° N 01:49:57 13° NNE 01:53:08 10° NE visible
15 Mar 5.3 03:36:32 10° NNW 03:43:16 36° NE 03:50:31 10° ESE visible
15 Mar 4.1 05:27:10 10° NW 05:34:39 62° WSW 05:42:40 10° SSE visible
15 Mar 3.8 19:19:44 10° S 19:25:15 41° ESE 19:31:13 10° NE visible
15 Mar 4.8 21:10:32 10° WSW 21:16:09 37° NW 21:22:18 10° NNE visible
15 Mar 6.3 23:06:41 10° NW 23:09:19 12° NNW 23:12:02 10° N visible
16 Mar 6.5 01:02:29 10° N 01:03:57 11° NNE 01:05:26 10° NNE visible
16 Mar 5.7 02:51:48 10° NNW 02:57:48 26° NE 03:04:12 10° E visible
16 Mar 4.0 04:42:05 10° NW 04:49:41 90° SSW 04:57:53 10° SSE visible
16 Mar 4.1 20:25:01 10° SW 20:30:55 57° NW 20:37:27 10° NNE visible
16 Mar 6.0 22:19:41 10° WNW 22:23:28 16° NNW 22:27:28 10° N visible
17 Mar 6.1 02:07:08 10° NNW 02:12:10 19° NNE 02:17:29 10° ENE visible
17 Mar 4.4 03:57:08 10° NNW 04:04:36 63° NE 04:12:38 10° SE visible
17 Mar 4.7 05:48:42 10° NW 05:55:16 31° WSW 06:02:10 10° S visible
17 Mar 3.4 19:39:53 10° SSW 19:45:52 89° WNW 19:52:28 10° NE visible
17 Mar 5.7 21:33:06 10° W 21:37:47 21° NNW 21:42:48 10° NNE visible
18 Mar 6.3 01:22:30 10° N 01:26:22 15° NNE 01:30:24 10° NE visible
18 Mar 4.9 03:12:18 10° NNW 03:19:22 44° NE 03:26:59 10° ESE visible
18 Mar 4.2 05:03:12 10° NW 05:10:28 48° WSW 05:18:13 10° S visible
18 Mar 3.6 18:55:12 10° SSW 19:01:00 56° ESE 19:07:19 10° NE visible
18 Mar 5.2 20:46:56 10° W 20:52:16 30° NW 20:58:05 10° NNE visible
18 Mar 6.4 22:43:57 10° NNW 22:45:46 11° NNW 22:47:37 10° N visible
19 Mar 6.4 00:37:59 10° N 00:40:26 12° NNE 00:42:57 10° NE visible
19 Mar 5.4 02:27:32 10° NNW 02:33:59 31° NE 02:40:55 10° ESE visible
19 Mar 3.9 04:18:00 10° NW 04:25:35 73° WSW 04:33:42 10° SSE visible
19 Mar 4.6 20:01:09 10° WSW 20:06:56 44° NW 20:13:16 10° NNE visible
19 Mar 6.2 21:56:41 10° NW 21:59:50 14° NNW 22:03:09 10° N visible
19 Mar 6.5 23:54:02 10° N 23:54:24 10° N 23:54:45 10° N visible
20 Mar 5.8 01:42:50 10° NNW 01:48:28 23° NE 01:54:25 10° E visible
20 Mar 4.0 03:32:59 10° NNW 03:40:33 78° NE 03:48:44 10° SE visible
20 Mar 4.9 05:25:06 10° WNW 05:30:58 24° WSW 05:37:06 10° SSW visible
20 Mar 3.9 19:15:47 10° SW 19:21:47 69° NW 19:28:22 10° NNE visible
20 Mar 6.0 21:09:52 10° WNW 21:14:03 18° NNW 21:18:31 10° NNE visible
21 Mar 6.1 00:58:11 10° NNW 01:02:45 17° NNE 01:07:33 10° ENE visible
21 Mar 4.5 02:48:05 10° NNW 02:55:24 54° NE 03:03:19 10° SE visible
21 Mar 4.4 04:39:20 10° NW 04:46:16 38° WSW 04:53:35 10° S visible
21 Mar 5.6 20:23:27 10° W 20:28:26 24° NW 20:33:50 10° NNE visible
21 Mar 6.4 22:21:34 10° NNW 22:22:15 10° N 22:22:56 10° N visible
22 Mar 6.3 00:13:36 10° N 00:16:53 13° NNE 00:20:19 10° NE visible
22 Mar 5.1 02:03:17 10° NNW 02:10:08 38° NE 02:17:28 10° ESE visible
22 Mar 4.0 03:53:59 10° NW 04:01:26 58° WSW 04:09:23 10° SSE visible
22 Mar 5.1 19:37:28 10° WSW 19:43:00 35° NW 19:49:04 10° NNE visible
22 Mar 6.3 21:33:50 10° NW 21:36:16 12° NNW 21:38:46 10° N visible
22 Mar 6.4 23:29:08 10° N 23:30:54 11° NNE 23:32:42 10° NNE visible
